owner,sensor,date,latitude,longitude,air_temperature,qcFlag 
COMPS,ioos:station:USF.COMPS:SHP:1,2013-04-01T00:00:00Z,30.0600,-84.2910,18.26,1111122 
COMPS,ioos:station:USF.COMPS:SHP:1,2013-04-01T00:06:00Z,30.0600,-84.2910,18.39,1111122 
COMPS,ioos:station:USF.COMPS:SHP:1,2013-04-01T00:12:00Z,30.0600,-84.2910,18.48,1111122 
COMPS,ioos:station:USF.COMPS:SHP:1,2013-04-01T00:18:00Z,30.0600,-84.2910,18.31,1111122 
COMPS,ioos:station:USF.COMPS:SHP:1,2013-04-01T00:24:00Z,30.0600,-84.2910,18.27,1111122 
COMPS,ioos:station:USF.COMPS:SHP:1,2013-04-01T00:30:00Z,30.0600,-84.2910,18.29,1111122 
COMPS,ioos:station:USF.COMPS:SHP:1,2013-04-01T00:36:00Z,30.0600,-84.2910,18.34,1111122 
COMPS,ioos:station:USF.COMPS:SHP:1,2013-04-01T00:42:00Z,30.0600,-84.2910,18.29,1111122 
COMPS,ioos:station:USF.COMPS:SHP:1,2013-04-01T00:48:00Z,30.0600,-84.2910,18.16,1111122 
COMPS,ioos:station:USF.COMPS:SHP:1,2013-04-01T00:54:00Z,30.0600,-84.2910,18.21,1111122 
COMPS,ioos:station:USF.COMPS:SHP:1,2013-04-01T01:00:00Z,30.0600,-84.2910,18.2,1111122 
COMPS,ioos:station:USF.COMPS:SHP:1,2013-04-01T01:06:00Z,30.0600,-84.2910,18.2,1111122 
COMPS,ioos:station:USF.COMPS:SHP:1,2013-04-01T01:12:00Z,30.0600,-84.2910,18.18,1111122 
COMPS,ioos:station:USF.COMPS:SHP:1,2013-04-01T01:18:00Z,30.0600,-84.2910,18.25,1111122 
COMPS,ioos:station:USF.COMPS:SHP:1,2013-04-01T01:24:00Z,30.0600,-84.2910,18.39,1111122 
COMPS,ioos:station:USF.COMPS:SHP:1,2013-04-01T01:30:00Z,30.0600,-84.2910,18.33,1111122 
COMPS,ioos:station:USF.COMPS:SHP:1,2013-04-01T01:36:00Z,30.0600,-84.2910,18.25,1111122 
COMPS,ioos:station:USF.COMPS:SHP:1,2013-04-01T01:42:00Z,30.0600,-84.2910,18.35,1111122 
COMPS,ioos:station:USF.COMPS:SHP:1,2013-04-01T01:48:00Z,30.0600,-84.2910,18.45,1111122 
COMPS,ioos:station:USF.COMPS:SHP:1,2013-04-01T01:54:00Z,30.0600,-84.2910,18.35,1111122 
COMPS,ioos:station:USF.COMPS:SHP:1,2013-04-01T02:00:00Z,30.0600,-84.2910,18.4,1111122 
COMPS,ioos:station:USF.COMPS:SHP:1,2013-04-01T02:06:00Z,30.0600,-84.2910,18.44,1111122 
COMPS,ioos:station:USF.COMPS:SHP:1,2013-04-01T02:12:00Z,30.0600,-84.2910,18.54,1111122 
COMPS,ioos:station:USF.COMPS:SHP:1,2013-04-01T02:18:00Z,30.0600,-84.2910,18.49,1111122 
COMPS,ioos:station:USF.COMPS:SHP:1,2013-04-01T02:24:00Z,30.0600,-84.2910,18.42,1111122 
COMPS,ioos:station:USF.COMPS:SHP:1,2013-04-01T02:30:00Z,30.0600,-84.2910,18.41,1111122 
COMPS,ioos:station:USF.COMPS:SHP:1,2013-04-01T02:36:00Z,30.0600,-84.2910,18.36,1111122 
COMPS,ioos:station:USF.COMPS:SHP:1,2013-04-01T02:42:00Z,30.0600,-84.2910,18.46,1111122 
COMPS,ioos:station:USF.COMPS:SHP:1,2013-04-01T02:48:00Z,30.0600,-84.2910,18.18,1111122 
COMPS,ioos:station:USF.COMPS:SHP:1,2013-04-01T02:54:00Z,30.0600,-84.2910,18.15,1111122 
COMPS,ioos:station:USF.COMPS:SHP:1,2013-04-01T03:00:00Z,30.0600,-84.2910,18.19,1111122 
COMPS,ioos:station:USF.COMPS:SHP:1,2013-04-01T03:06:00Z,30.0600,-84.2910,18.25,1111122 
COMPS,ioos:station:USF.COMPS:SHP:1,2013-04-01T03:12:00Z,30.0600,-84.2910,18.15,1111122 
COMPS,ioos:station:USF.COMPS:SHP:1,2013-04-01T03:18:00Z,30.0600,-84.2910,18.15,1111122 
COMPS,ioos:station:USF.COMPS:SHP:1,2013-04-01T03:24:00Z,30.0600,-84.2910,18.28,1111122 
COMPS,ioos:station:USF.COMPS:SHP:1,2013-04-01T03:30:00Z,30.0600,-84.2910,18.4,1111122 
COMPS,ioos:station:USF.COMPS:SHP:1,2013-04-01T03:36:00Z,30.0600,-84.2910,18.19,1111122 
COMPS,ioos:station:USF.COMPS:SHP:1,2013-04-01T03:42:00Z,30.0600,-84.2910,18.27,1111122 
COMPS,ioos:station:USF.COMPS:SHP:1,2013-04-01T03:48:00Z,30.0600,-84.2910,18.15,1111122 
COMPS,ioos:station:USF.COMPS:SHP:1,2013-04-01T03:54:00Z,30.0600,-84.2910,18.28,1111122 
COMPS,ioos:station:USF.COMPS:SHP:1,2013-04-01T04:00:00Z,30.0600,-84.2910,18.16,1111122 
COMPS,ioos:station:USF.COMPS:SHP:1,2013-04-01T04:06:00Z,30.0600,-84.2910,18.27,1111122 
COMPS,ioos:station:USF.COMPS:SHP:1,2013-04-01T04:12:00Z,30.0600,-84.2910,18.17,1111122 
COMPS,ioos:station:USF.COMPS:SHP:1,2013-04-01T04:18:00Z,30.0600,-84.2910,18.15,1111122 
COMPS,ioos:station:USF.COMPS:SHP:1,2013-04-01T04:24:00Z,30.0600,-84.2910,18.06,1111122 
COMPS,ioos:station:USF.COMPS:SHP:1,2013-04-01T04:30:00Z,30.0600,-84.2910,18.16,1111122 
COMPS,ioos:station:USF.COMPS:SHP:1,2013-04-01T04:36:00Z,30.0600,-84.2910,18.09,1111122 
COMPS,ioos:station:USF.COMPS:SHP:1,2013-04-01T04:42:00Z,30.0600,-84.2910,18.2,1111122 
COMPS,ioos:station:USF.COMPS:SHP:1,2013-04-01T04:48:00Z,30.0600,-84.2910,18.09,1111122 
COMPS,ioos:station:USF.COMPS:SHP:1,2013-04-01T04:54:00Z,30.0600,-84.2910,18.1,1111122 
COMPS,ioos:station:USF.COMPS:SHP:1,2013-04-01T05:00:00Z,30.0600,-84.2910,18.16,1111122 
COMPS,ioos:station:USF.COMPS:SHP:1,2013-04-01T05:06:00Z,30.0600,-84.2910,18.15,1111122 
COMPS,ioos:station:USF.COMPS:SHP:1,2013-04-01T05:12:00Z,30.0600,-84.2910,18.14,1111122 
COMPS,ioos:station:USF.COMPS:SHP:1,2013-04-01T05:18:00Z,30.0600,-84.2910,18.23,1111122 
COMPS,ioos:station:USF.COMPS:SHP:1,2013-04-01T05:24:00Z,30.0600,-84.2910,18.3,1111122 
COMPS,ioos:station:USF.COMPS:SHP:1,2013-04-01T05:30:00Z,30.0600,-84.2910,18.2,1111122 
COMPS,ioos:station:USF.COMPS:SHP:1,2013-04-01T05:36:00Z,30.0600,-84.2910,18.22,1111122 
COMPS,ioos:station:USF.COMPS:SHP:1,2013-04-01T05:42:00Z,30.0600,-84.2910,18.23,1111122 
COMPS,ioos:station:USF.COMPS:SHP:1,2013-04-01T05:48:00Z,30.0600,-84.2910,18.16,1111122 
COMPS,ioos:station:USF.COMPS:SHP:1,2013-04-01T05:54:00Z,30.0600,-84.2910,18.14,1111122 
COMPS,ioos:station:USF.COMPS:SHP:1,2013-04-01T06:00:00Z,30.0600,-84.2910,18.1,1111122 
COMPS,ioos:station:USF.COMPS:SHP:1,2013-04-01T06:06:00Z,30.0600,-84.2910,18.15,1111122 
COMPS,ioos:station:USF.COMPS:SHP:1,2013-04-01T06:12:00Z,30.0600,-84.2910,18.19,1111122 
COMPS,ioos:station:USF.COMPS:SHP:1,2013-04-01T06:18:00Z,30.0600,-84.2910,18.02,1111122 
COMPS,ioos:station:USF.COMPS:SHP:1,2013-04-01T06:24:00Z,30.0600,-84.2910,18.11,1111122 
COMPS,ioos:station:USF.COMPS:SHP:1,2013-04-01T06:30:00Z,30.0600,-84.2910,18.21,1111122 
COMPS,ioos:station:USF.COMPS:SHP:1,2013-04-01T06:36:00Z,30.0600,-84.2910,18.41,1111122 
COMPS,ioos:station:USF.COMPS:SHP:1,2013-04-01T06:42:00Z,30.0600,-84.2910,18.38,1111122 
COMPS,ioos:station:USF.COMPS:SHP:1,2013-04-01T06:48:00Z,30.0600,-84.2910,18.34,1111122 
COMPS,ioos:station:USF.COMPS:SHP:1,2013-04-01T06:54:00Z,30.0600,-84.2910,18.42,1111122 
COMPS,ioos:station:USF.COMPS:SHP:1,2013-04-01T07:00:00Z,30.0600,-84.2910,18.4,1111122 
COMPS,ioos:station:USF.COMPS:SHP:1,2013-04-01T07:06:00Z,30.0600,-84.2910,18.6,1111122 
COMPS,ioos:station:USF.COMPS:SHP:1,2013-04-01T07:12:00Z,30.0600,-84.2910,18.56,1111122 
COMPS,ioos:station:USF.COMPS:SHP:1,2013-04-01T07:18:00Z,30.0600,-84.2910,18.53,1111122 
COMPS,ioos:station:USF.COMPS:SHP:1,2013-04-01T07:24:00Z,30.0600,-84.2910,18.51,1111122 
COMPS,ioos:station:USF.COMPS:SHP:1,2013-04-01T07:30:00Z,30.0600,-84.2910,18.48,1111122 
COMPS,ioos:station:USF.COMPS:SHP:1,2013-04-01T07:36:00Z,30.0600,-84.2910,18.42,1111122 
COMPS,ioos:station:USF.COMPS:SHP:1,2013-04-01T07:42:00Z,30.0600,-84.2910,18.52,1111122 
COMPS,ioos:station:USF.COMPS:SHP:1,2013-04-01T07:48:00Z,30.0600,-84.2910,18.65,1111122 
COMPS,ioos:station:USF.COMPS:SHP:1,2013-04-01T07:54:00Z,30.0600,-84.2910,18.78,1111122 
COMPS,ioos:station:USF.COMPS:SHP:1,2013-04-01T08:00:00Z,30.0600,-84.2910,18.8,1111122 
COMPS,ioos:station:USF.COMPS:SHP:1,2013-04-01T08:06:00Z,30.0600,-84.2910,18.77,1111122 
COMPS,ioos:station:USF.COMPS:SHP:1,2013-04-01T08:12:00Z,30.0600,-84.2910,18.78,1111122 
COMPS,ioos:station:USF.COMPS:SHP:1,2013-04-01T08:18:00Z,30.0600,-84.2910,18.81,1111122 
COMPS,ioos:station:USF.COMPS:SHP:1,2013-04-01T08:24:00Z,30.0600,-84.2910,18.82,1111122 
COMPS,ioos:station:USF.COMPS:SHP:1,2013-04-01T08:30:00Z,30.0600,-84.2910,18.83,1111122 
COMPS,ioos:station:USF.COMPS:SHP:1,2013-04-01T08:36:00Z,30.0600,-84.2910,18.84,1111122 
COMPS,ioos:station:USF.COMPS:SHP:1,2013-04-01T08:42:00Z,30.0600,-84.2910,19.03,1111122 
COMPS,ioos:station:USF.COMPS:SHP:1,2013-04-01T08:48:00Z,30.0600,-84.2910,18.89,1111122 
COMPS,ioos:station:USF.COMPS:SHP:1,2013-04-01T08:54:00Z,30.0600,-84.2910,18.95,1111122 
COMPS,ioos:station:USF.COMPS:SHP:1,2013-04-01T09:00:00Z,30.0600,-84.2910,18.94,1111122 
COMPS,ioos:station:USF.COMPS:SHP:1,2013-04-01T09:06:00Z,30.0600,-84.2910,19.09,1111122 
COMPS,ioos:station:USF.COMPS:SHP:1,2013-04-01T09:12:00Z,30.0600,-84.2910,18.97,1111122 
COMPS,ioos:station:USF.COMPS:SHP:1,2013-04-01T09:18:00Z,30.0600,-84.2910,18.97,1111122 
COMPS,ioos:station:USF.COMPS:SHP:1,2013-04-01T09:24:00Z,30.0600,-84.2910,18.97,1111122 
COMPS,ioos:station:USF.COMPS:SHP:1,2013-04-01T09:30:00Z,30.0600,-84.2910,19.07,1111122 
COMPS,ioos:station:USF.COMPS:SHP:1,2013-04-01T09:36:00Z,30.0600,-84.2910,19.0,1111122 
COMPS,ioos:station:USF.COMPS:SHP:1,2013-04-01T09:42:00Z,30.0600,-84.2910,19.02,1111122 
COMPS,ioos:station:USF.COMPS:SHP:1,2013-04-01T09:48:00Z,30.0600,-84.2910,18.86,1111122 
COMPS,ioos:station:USF.COMPS:SHP:1,2013-04-01T09:54:00Z,30.0600,-84.2910,19.03,1111122 
COMPS,ioos:station:USF.COMPS:SHP:1,2013-04-01T10:00:00Z,30.0600,-84.2910,19.01,1111122 
COMPS,ioos:station:USF.COMPS:SHP:1,2013-04-01T10:06:00Z,30.0600,-84.2910,18.96,1111122 
COMPS,ioos:station:USF.COMPS:SHP:1,2013-04-01T10:12:00Z,30.0600,-84.2910,18.96,1111122 
COMPS,ioos:station:USF.COMPS:SHP:1,2013-04-01T10:18:00Z,30.0600,-84.2910,19.03,1111122 
COMPS,ioos:station:USF.COMPS:SHP:1,2013-04-01T10:24:00Z,30.0600,-84.2910,19.04,1111122 
COMPS,ioos:station:USF.COMPS:SHP:1,2013-04-01T10:30:00Z,30.0600,-84.2910,18.97,1111122 
COMPS,ioos:station:USF.COMPS:SHP:1,2013-04-01T10:36:00Z,30.0600,-84.2910,19.05,1111122 
COMPS,ioos:station:USF.COMPS:SHP:1,2013-04-01T10:42:00Z,30.0600,-84.2910,19.08,1111122 
COMPS,ioos:station:USF.COMPS:SHP:1,2013-04-01T10:48:00Z,30.0600,-84.2910,19.06,1111122 
COMPS,ioos:station:USF.COMPS:SHP:1,2013-04-01T10:54:00Z,30.0600,-84.2910,18.97,1111122 
COMPS,ioos:station:USF.COMPS:SHP:1,2013-04-01T11:00:00Z,30.0600,-84.2910,19.0,1111122 
COMPS,ioos:station:USF.COMPS:SHP:1,2013-04-01T11:06:00Z,30.0600,-84.2910,18.85,1111122 
COMPS,ioos:station:USF.COMPS:SHP:1,2013-04-01T11:12:00Z,30.0600,-84.2910,18.95,1111122 
COMPS,ioos:station:USF.COMPS:SHP:1,2013-04-01T11:18:00Z,30.0600,-84.2910,18.83,1111122 
COMPS,ioos:station:USF.COMPS:SHP:1,2013-04-01T11:24:00Z,30.0600,-84.2910,18.83,1111122 
COMPS,ioos:station:USF.COMPS:SHP:1,2013-04-01T11:30:00Z,30.0600,-84.2910,18.83,1111122 
COMPS,ioos:station:USF.COMPS:SHP:1,2013-04-01T11:36:00Z,30.0600,-84.2910,18.96,1111122 
COMPS,ioos:station:USF.COMPS:SHP:1,2013-04-01T11:42:00Z,30.0600,-84.2910,18.91,1111122 
COMPS,ioos:station:USF.COMPS:SHP:1,2013-04-01T11:48:00Z,30.0600,-84.2910,18.91,1111122 
COMPS,ioos:station:USF.COMPS:SHP:1,2013-04-01T11:54:00Z,30.0600,-84.2910,18.97,1111122 
COMPS,ioos:station:USF.COMPS:SHP:1,2013-04-01T12:00:00Z,30.0600,-84.2910,19.08,1111122 
COMPS,ioos:station:USF.COMPS:SHP:1,2013-04-01T12:06:00Z,30.0600,-84.2910,18.99,1111122 
COMPS,ioos:station:USF.COMPS:SHP:1,2013-04-01T12:12:00Z,30.0600,-84.2910,18.97,1111122 
COMPS,ioos:station:USF.COMPS:SHP:1,2013-04-01T12:18:00Z,30.0600,-84.2910,18.97,1111122 
COMPS,ioos:station:USF.COMPS:SHP:1,2013-04-01T12:24:00Z,30.0600,-84.2910,19.16,1111122 
COMPS,ioos:station:USF.COMPS:SHP:1,2013-04-01T12:30:00Z,30.0600,-84.2910,19.15,1111122 
COMPS,ioos:station:USF.COMPS:SHP:1,2013-04-01T12:36:00Z,30.0600,-84.2910,19.1,1111122 
COMPS,ioos:station:USF.COMPS:SHP:1,2013-04-01T12:42:00Z,30.0600,-84.2910,19.17,1111122 
COMPS,ioos:station:USF.COMPS:SHP:1,2013-04-01T12:48:00Z,30.0600,-84.2910,19.17,1111122 
COMPS,ioos:station:USF.COMPS:SHP:1,2013-04-01T12:54:00Z,30.0600,-84.2910,19.27,1111122 
COMPS,ioos:station:USF.COMPS:SHP:1,2013-04-01T13:00:00Z,30.0600,-84.2910,19.3,1111122 
COMPS,ioos:station:USF.COMPS:SHP:1,2013-04-01T13:06:00Z,30.0600,-84.2910,19.5,1111122 
COMPS,ioos:station:USF.COMPS:SHP:1,2013-04-01T13:12:00Z,30.0600,-84.2910,19.56,1111122 
COMPS,ioos:station:USF.COMPS:SHP:1,2013-04-01T13:18:00Z,30.0600,-84.2910,19.6,1111122 
COMPS,ioos:station:USF.COMPS:SHP:1,2013-04-01T13:24:00Z,30.0600,-84.2910,19.4,1111122 
COMPS,ioos:station:USF.COMPS:SHP:1,2013-04-01T13:30:00Z,30.0600,-84.2910,19.44,1111122 
COMPS,ioos:station:USF.COMPS:SHP:1,2013-04-01T13:36:00Z,30.0600,-84.2910,19.58,1111122 
COMPS,ioos:station:USF.COMPS:SHP:1,2013-04-01T13:42:00Z,30.0600,-84.2910,19.89,1111122 
COMPS,ioos:station:USF.COMPS:SHP:1,2013-04-01T13:48:00Z,30.0600,-84.2910,19.81,1111122 
COMPS,ioos:station:USF.COMPS:SHP:1,2013-04-01T13:54:00Z,30.0600,-84.2910,20.32,1111122 
COMPS,ioos:station:USF.COMPS:SHP:1,2013-04-01T14:00:00Z,30.0600,-84.2910,20.71,1111122 
COMPS,ioos:station:USF.COMPS:SHP:1,2013-04-01T14:06:00Z,30.0600,-84.2910,21.0,1111122 
COMPS,ioos:station:USF.COMPS:SHP:1,2013-04-01T14:12:00Z,30.0600,-84.2910,20.83,1111122 
COMPS,ioos:station:USF.COMPS:SHP:1,2013-04-01T14:18:00Z,30.0600,-84.2910,20.72,1111122 
COMPS,ioos:station:USF.COMPS:SHP:1,2013-04-01T14:24:00Z,30.0600,-84.2910,20.87,1111122 
COMPS,ioos:station:USF.COMPS:SHP:1,2013-04-01T14:30:00Z,30.0600,-84.2910,21.16,1111122 
COMPS,ioos:station:USF.COMPS:SHP:1,2013-04-01T14:36:00Z,30.0600,-84.2910,21.05,1111122 
COMPS,ioos:station:USF.COMPS:SHP:1,2013-04-01T14:42:00Z,30.0600,-84.2910,21.18,1111122 
COMPS,ioos:station:USF.COMPS:SHP:1,2013-04-01T14:48:00Z,30.0600,-84.2910,21.24,1111122 
COMPS,ioos:station:USF.COMPS:SHP:1,2013-04-01T14:54:00Z,30.0600,-84.2910,21.27,1111122 
COMPS,ioos:station:USF.COMPS:SHP:1,2013-04-01T15:00:00Z,30.0600,-84.2910,21.3,1111122 
COMPS,ioos:station:USF.COMPS:SHP:1,2013-04-01T15:06:00Z,30.0600,-84.2910,21.88,1111122 
COMPS,ioos:station:USF.COMPS:SHP:1,2013-04-01T15:12:00Z,30.0600,-84.2910,22.21,1111122 
COMPS,ioos:station:USF.COMPS:SHP:1,2013-04-01T15:18:00Z,30.0600,-84.2910,21.78,1111122 
COMPS,ioos:station:USF.COMPS:SHP:1,2013-04-01T15:24:00Z,30.0600,-84.2910,21.94,1111122 
COMPS,ioos:station:USF.COMPS:SHP:1,2013-04-01T15:30:00Z,30.0600,-84.2910,21.87,1111122 
COMPS,ioos:station:USF.COMPS:SHP:1,2013-04-01T15:36:00Z,30.0600,-84.2910,21.97,1111122 
COMPS,ioos:station:USF.COMPS:SHP:1,2013-04-01T15:42:00Z,30.0600,-84.2910,22.24,1111122 
COMPS,ioos:station:USF.COMPS:SHP:1,2013-04-01T15:48:00Z,30.0600,-84.2910,22.18,1111122 
COMPS,ioos:station:USF.COMPS:SHP:1,2013-04-01T15:54:00Z,30.0600,-84.2910,22.3,1111122 
COMPS,ioos:station:USF.COMPS:SHP:1,2013-04-01T16:00:00Z,30.0600,-84.2910,22.3,1111122 
COMPS,ioos:station:USF.COMPS:SHP:1,2013-04-01T16:06:00Z,30.0600,-84.2910,23.25,1111122 
COMPS,ioos:station:USF.COMPS:SHP:1,2013-04-01T16:12:00Z,30.0600,-84.2910,23.3,1111122 
COMPS,ioos:station:USF.COMPS:SHP:1,2013-04-01T16:18:00Z,30.0600,-84.2910,22.81,1111122 
COMPS,ioos:station:USF.COMPS:SHP:1,2013-04-01T16:24:00Z,30.0600,-84.2910,22.98,1111122 
COMPS,ioos:station:USF.COMPS:SHP:1,2013-04-01T16:30:00Z,30.0600,-84.2910,23.1,1111122 
COMPS,ioos:station:USF.COMPS:SHP:1,2013-04-01T16:36:00Z,30.0600,-84.2910,23.47,1111122 
COMPS,ioos:station:USF.COMPS:SHP:1,2013-04-01T16:42:00Z,30.0600,-84.2910,23.56,1111122 
COMPS,ioos:station:USF.COMPS:SHP:1,2013-04-01T16:48:00Z,30.0600,-84.2910,23.37,1111122 
COMPS,ioos:station:USF.COMPS:SHP:1,2013-04-01T16:54:00Z,30.0600,-84.2910,23.5,1111122 
COMPS,ioos:station:USF.COMPS:SHP:1,2013-04-01T17:00:00Z,30.0600,-84.2910,23.5,1111122 
COMPS,ioos:station:USF.COMPS:SHP:1,2013-04-01T17:06:00Z,30.0600,-84.2910,23.59,1111122 
COMPS,ioos:station:USF.COMPS:SHP:1,2013-04-01T17:12:00Z,30.0600,-84.2910,23.38,1111122 
COMPS,ioos:station:USF.COMPS:SHP:1,2013-04-01T17:18:00Z,30.0600,-84.2910,23.74,1111122 
COMPS,ioos:station:USF.COMPS:SHP:1,2013-04-01T17:24:00Z,30.0600,-84.2910,24.53,1111122 
COMPS,ioos:station:USF.COMPS:SHP:1,2013-04-01T17:30:00Z,30.0600,-84.2910,24.78,1111122 
COMPS,ioos:station:USF.COMPS:SHP:1,2013-04-01T17:36:00Z,30.0600,-84.2910,24.17,1111122 
COMPS,ioos:station:USF.COMPS:SHP:1,2013-04-01T17:42:00Z,30.0600,-84.2910,24.07,1111122 
COMPS,ioos:station:USF.COMPS:SHP:1,2013-04-01T17:48:00Z,30.0600,-84.2910,24.49,1111122 
COMPS,ioos:station:USF.COMPS:SHP:1,2013-04-01T17:54:00Z,30.0600,-84.2910,24.92,1111122 
COMPS,ioos:station:USF.COMPS:SHP:1,2013-04-01T18:00:00Z,30.0600,-84.2910,24.9,1111122 
COMPS,ioos:station:USF.COMPS:SHP:1,2013-04-01T18:06:00Z,30.0600,-84.2910,23.58,1111122 
COMPS,ioos:station:USF.COMPS:SHP:1,2013-04-01T18:12:00Z,30.0600,-84.2910,22.61,1111122 
COMPS,ioos:station:USF.COMPS:SHP:1,2013-04-01T18:18:00Z,30.0600,-84.2910,23.22,1111122 
COMPS,ioos:station:USF.COMPS:SHP:1,2013-04-01T18:24:00Z,30.0600,-84.2910,22.85,1111122 
COMPS,ioos:station:USF.COMPS:SHP:1,2013-04-01T18:30:00Z,30.0600,-84.2910,22.18,1111122 
COMPS,ioos:station:USF.COMPS:SHP:1,2013-04-01T18:36:00Z,30.0600,-84.2910,22.23,1111122 
COMPS,ioos:station:USF.COMPS:SHP:1,2013-04-01T18:42:00Z,30.0600,-84.2910,21.93,1111122 
COMPS,ioos:station:USF.COMPS:SHP:1,2013-04-01T18:48:00Z,30.0600,-84.2910,22.6,1111122 
COMPS,ioos:station:USF.COMPS:SHP:1,2013-04-01T18:54:00Z,30.0600,-84.2910,22.19,1111122 
COMPS,ioos:station:USF.COMPS:SHP:1,2013-04-01T19:00:00Z,30.0600,-84.2910,22.2,1111122 
COMPS,ioos:station:USF.COMPS:SHP:1,2013-04-01T19:06:00Z,30.0600,-84.2910,22.19,1111122 
COMPS,ioos:station:USF.COMPS:SHP:1,2013-04-01T19:12:00Z,30.0600,-84.2910,22.83,1111122 
COMPS,ioos:station:USF.COMPS:SHP:1,2013-04-01T19:18:00Z,30.0600,-84.2910,22.79,1111122 
COMPS,ioos:station:USF.COMPS:SHP:1,2013-04-01T19:24:00Z,30.0600,-84.2910,22.86,1111122 
COMPS,ioos:station:USF.COMPS:SHP:1,2013-04-01T19:30:00Z,30.0600,-84.2910,23.14,1111122 
COMPS,ioos:station:USF.COMPS:SHP:1,2013-04-01T19:36:00Z,30.0600,-84.2910,23.52,1111122 
COMPS,ioos:station:USF.COMPS:SHP:1,2013-04-01T19:42:00Z,30.0600,-84.2910,23.69,1111122 
COMPS,ioos:station:USF.COMPS:SHP:1,2013-04-01T19:48:00Z,30.0600,-84.2910,24.94,1111122 
COMPS,ioos:station:USF.COMPS:SHP:1,2013-04-01T19:54:00Z,30.0600,-84.2910,25.78,1111122 
COMPS,ioos:station:USF.COMPS:SHP:1,2013-04-01T20:00:00Z,30.0600,-84.2910,25.8,1111122 
COMPS,ioos:station:USF.COMPS:SHP:1,2013-04-01T20:06:00Z,30.0600,-84.2910,26.11,1111122 
COMPS,ioos:station:USF.COMPS:SHP:1,2013-04-01T20:12:00Z,30.0600,-84.2910,26.02,1111122 
COMPS,ioos:station:USF.COMPS:SHP:1,2013-04-01T20:18:00Z,30.0600,-84.2910,25.98,1111122 
COMPS,ioos:station:USF.COMPS:SHP:1,2013-04-01T20:24:00Z,30.0600,-84.2910,26.32,1111122 
COMPS,ioos:station:USF.COMPS:SHP:1,2013-04-01T20:30:00Z,30.0600,-84.2910,26.15,1111122 
COMPS,ioos:station:USF.COMPS:SHP:1,2013-04-01T20:36:00Z,30.0600,-84.2910,26.66,1111122 
COMPS,ioos:station:USF.COMPS:SHP:1,2013-04-01T20:42:00Z,30.0600,-84.2910,26.43,1111122 
COMPS,ioos:station:USF.COMPS:SHP:1,2013-04-01T20:48:00Z,30.0600,-84.2910,26.18,1111122 
COMPS,ioos:station:USF.COMPS:SHP:1,2013-04-01T20:54:00Z,30.0600,-84.2910,26.19,1111122 
COMPS,ioos:station:USF.COMPS:SHP:1,2013-04-01T21:00:00Z,30.0600,-84.2910,25.24,1111122 
COMPS,ioos:station:USF.COMPS:SHP:1,2013-04-01T21:06:00Z,30.0600,-84.2910,25.7,1111122 
COMPS,ioos:station:USF.COMPS:SHP:1,2013-04-01T21:12:00Z,30.0600,-84.2910,26.52,1111122 
COMPS,ioos:station:USF.COMPS:SHP:1,2013-04-01T21:18:00Z,30.0600,-84.2910,26.36,1111122 
COMPS,ioos:station:USF.COMPS:SHP:1,2013-04-01T21:24:00Z,30.0600,-84.2910,26.42,1111122 
COMPS,ioos:station:USF.COMPS:SHP:1,2013-04-01T21:30:00Z,30.0600,-84.2910,26.61,1111122 
COMPS,ioos:station:USF.COMPS:SHP:1,2013-04-01T21:36:00Z,30.0600,-84.2910,25.95,1111122 
COMPS,ioos:station:USF.COMPS:SHP:1,2013-04-01T21:42:00Z,30.0600,-84.2910,26.27,1111122 
COMPS,ioos:station:USF.COMPS:SHP:1,2013-04-01T21:48:00Z,30.0600,-84.2910,26.39,1111122 
COMPS,ioos:station:USF.COMPS:SHP:1,2013-04-01T21:54:00Z,30.0600,-84.2910,26.08,1111122 
COMPS,ioos:station:USF.COMPS:SHP:1,2013-04-01T22:00:00Z,30.0600,-84.2910,26.1,1111122 
COMPS,ioos:station:USF.COMPS:SHP:1,2013-04-01T22:06:00Z,30.0600,-84.2910,24.73,1111122 
COMPS,ioos:station:USF.COMPS:SHP:1,2013-04-01T22:12:00Z,30.0600,-84.2910,25.95,1111122 
COMPS,ioos:station:USF.COMPS:SHP:1,2013-04-01T22:18:00Z,30.0600,-84.2910,23.87,1111122 
COMPS,ioos:station:USF.COMPS:SHP:1,2013-04-01T22:24:00Z,30.0600,-84.2910,24.27,1111122 
COMPS,ioos:station:USF.COMPS:SHP:1,2013-04-01T22:30:00Z,30.0600,-84.2910,23.33,1111122 
COMPS,ioos:station:USF.COMPS:SHP:1,2013-04-01T22:36:00Z,30.0600,-84.2910,22.25,1111122 
COMPS,ioos:station:USF.COMPS:SHP:1,2013-04-01T22:42:00Z,30.0600,-84.2910,22.42,1111122 
COMPS,ioos:station:USF.COMPS:SHP:1,2013-04-01T22:48:00Z,30.0600,-84.2910,22.6,1111122 
COMPS,ioos:station:USF.COMPS:SHP:1,2013-04-01T22:54:00Z,30.0600,-84.2910,22.6,1111122 
COMPS,ioos:station:USF.COMPS:SHP:1,2013-04-01T23:00:00Z,30.0600,-84.2910,22.22,1111122 
COMPS,ioos:station:USF.COMPS:SHP:1,2013-04-01T23:06:00Z,30.0600,-84.2910,22.17,1111122 
COMPS,ioos:station:USF.COMPS:SHP:1,2013-04-01T23:12:00Z,30.0600,-84.2910,22.35,1111122 
COMPS,ioos:station:USF.COMPS:SHP:1,2013-04-01T23:18:00Z,30.0600,-84.2910,22.3,1111122 
COMPS,ioos:station:USF.COMPS:SHP:1,2013-04-01T23:24:00Z,30.0600,-84.2910,22.09,1111122 
COMPS,ioos:station:USF.COMPS:SHP:1,2013-04-01T23:30:00Z,30.0600,-84.2910,21.73,1111122 
COMPS,ioos:station:USF.COMPS:SHP:1,2013-04-01T23:36:00Z,30.0600,-84.2910,21.59,1111122 
COMPS,ioos:station:USF.COMPS:SHP:1,2013-04-01T23:42:00Z,30.0600,-84.2910,21.62,1111122 
COMPS,ioos:station:USF.COMPS:SHP:1,2013-04-01T23:48:00Z,30.0600,-84.2910,21.33,1111122 
COMPS,ioos:station:USF.COMPS:SHP:1,2013-04-01T23:54:00Z,30.0600,-84.2910,21.28,1111122 
COMPS,ioos:station:USF.COMPS:SHP:1,2013-04-02T00:00:00Z,30.0600,-84.2910,21.3,1111122 
COMPS,ioos:station:USF.COMPS:SHP:1,2013-04-02T01:00:00Z,30.0600,-84.2910,22.11,1111122 
COMPS,ioos:station:USF.COMPS:SHP:1,2013-04-02T01:06:00Z,30.0600,-84.2910,21.57,1111122 
COMPS,ioos:station:USF.COMPS:SHP:1,2013-04-02T01:12:00Z,30.0600,-84.2910,21.8,1111122 
COMPS,ioos:station:USF.COMPS:SHP:1,2013-04-02T01:18:00Z,30.0600,-84.2910,22.14,1111122 
COMPS,ioos:station:USF.COMPS:SHP:1,2013-04-02T01:24:00Z,30.0600,-84.2910,22.47,1111122 
COMPS,ioos:station:USF.COMPS:SHP:1,2013-04-02T01:30:00Z,30.0600,-84.2910,22.5,1111122 
COMPS,ioos:station:USF.COMPS:SHP:1,2013-04-02T01:36:00Z,30.0600,-84.2910,22.57,1111122 
COMPS,ioos:station:USF.COMPS:SHP:1,2013-04-02T01:42:00Z,30.0600,-84.2910,22.37,1111122 
COMPS,ioos:station:USF.COMPS:SHP:1,2013-04-02T01:48:00Z,30.0600,-84.2910,21.85,1111122 
COMPS,ioos:station:USF.COMPS:SHP:1,2013-04-02T01:54:00Z,30.0600,-84.2910,21.6,1111122 
COMPS,ioos:station:USF.COMPS:SHP:1,2013-04-02T02:00:00Z,30.0600,-84.2910,21.6,1111122 
COMPS,ioos:station:USF.COMPS:SHP:1,2013-04-02T04:00:00Z,30.0600,-84.2910,19.1,1111122 
COMPS,ioos:station:USF.COMPS:SHP:1,2013-04-02T04:06:00Z,30.0600,-84.2910,18.86,1111122 
COMPS,ioos:station:USF.COMPS:SHP:1,2013-04-02T04:12:00Z,30.0600,-84.2910,18.86,1111122 
COMPS,ioos:station:USF.COMPS:SHP:1,2013-04-02T04:18:00Z,30.0600,-84.2910,18.75,1111122 
COMPS,ioos:station:USF.COMPS:SHP:1,2013-04-02T04:24:00Z,30.0600,-84.2910,18.53,1111122 
COMPS,ioos:station:USF.COMPS:SHP:1,2013-04-02T04:30:00Z,30.0600,-84.2910,18.48,1111122 
COMPS,ioos:station:USF.COMPS:SHP:1,2013-04-02T04:36:00Z,30.0600,-84.2910,18.37,1111122 
COMPS,ioos:station:USF.COMPS:SHP:1,2013-04-02T04:42:00Z,30.0600,-84.2910,18.32,1111122 
COMPS,ioos:station:USF.COMPS:SHP:1,2013-04-02T04:48:00Z,30.0600,-84.2910,18.07,1111122 
COMPS,ioos:station:USF.COMPS:SHP:1,2013-04-02T04:54:00Z,30.0600,-84.2910,17.93,1111122 
COMPS,ioos:station:USF.COMPS:SHP:1,2013-04-02T05:00:00Z,30.0600,-84.2910,17.9,1111122 
COMPS,ioos:station:USF.COMPS:SHP:1,2013-04-02T05:06:00Z,30.0600,-84.2910,17.88,1111122 
COMPS,ioos:station:USF.COMPS:SHP:1,2013-04-02T05:12:00Z,30.0600,-84.2910,17.86,1111122 
COMPS,ioos:station:USF.COMPS:SHP:1,2013-04-02T05:18:00Z,30.0600,-84.2910,17.74,1111122 
COMPS,ioos:station:USF.COMPS:SHP:1,2013-04-02T05:24:00Z,30.0600,-84.2910,17.75,1111122 
COMPS,ioos:station:USF.COMPS:SHP:1,2013-04-02T05:30:00Z,30.0600,-84.2910,17.74,1111122 
COMPS,ioos:station:USF.COMPS:SHP:1,2013-04-02T05:36:00Z,30.0600,-84.2910,17.59,1111122 
COMPS,ioos:station:USF.COMPS:SHP:1,2013-04-02T05:42:00Z,30.0600,-84.2910,17.67,1111122 
COMPS,ioos:station:USF.COMPS:SHP:1,2013-04-02T05:48:00Z,30.0600,-84.2910,17.5,1111122 
COMPS,ioos:station:USF.COMPS:SHP:1,2013-04-02T05:54:00Z,30.0600,-84.2910,17.56,1111122 